TimeMST,TemperatureF,Dew PointF,Humidity,Sea Level PressureIn,VisibilityMPH,Wind Direction,Wind SpeedMPH,Gust SpeedMPH,PrecipitationIn,Events,Conditions,WindDirDegrees,DateUTC
12:53 AM,24.1,17.1,75,30.37,10.0,ENE,5.8,-,N/A,,Clear,60,2012-11-24 07:53:00
1:53 AM,21.9,15.1,75,30.37,10.0,ENE,4.6,-,N/A,,Clear,70,2012-11-24 08:53:00
2:53 AM,21.0,15.1,78,30.37,10.0,Calm,Calm,-,N/A,,Clear,0,2012-11-24 09:53:00
3:53 AM,21.0,15.1,78,30.35,10.0,NE,3.5,-,N/A,,Clear,50,2012-11-24 10:53:00
5:53 AM,21.9,15.1,75,30.40,10.0,Calm,Calm,-,N/A,,Clear,0,2012-11-24 12:53:00
6:53 AM,21.0,16.0,81,30.43,10.0,NE,3.5,-,N/A,,Clear,40,2012-11-24 13:53:00
7:53 AM,24.1,16.0,71,30.40,10.0,ENE,3.5,-,N/A,,Clear,70,2012-11-24 14:53:00
8:53 AM,33.1,19.0,56,30.37,10.0,Calm,Calm,-,N/A,,Clear,0,2012-11-24 15:53:00
9:53 AM,37.9,19.0,47,30.34,10.0,Calm,Calm,-,N/A,,Clear,0,2012-11-24 16:53:00
10:53 AM,48.9,21.0,33,30.25,10.0,Calm,Calm,-,N/A,,Clear,0,2012-11-24 17:53:00
11:53 AM,54.0,18.0,24,30.19,10.0,Calm,Calm,-,N/A,,Clear,0,2012-11-24 18:53:00
12:53 PM,57.9,15.1,19,30.13,10.0,West,10.4,17.3,N/A,,Clear,260,2012-11-24 19:53:00
1:53 PM,59.0,15.1,18,30.12,10.0,WSW,12.7,18.4,N/A,,Clear,250,2012-11-24 20:53:00
2:53 PM,57.0,16.0,20,30.12,10.0,West,8.1,-,N/A,,Clear,260,2012-11-24 21:53:00
3:53 PM,55.0,17.1,23,30.12,10.0,SSW,5.8,-,N/A,,Clear,210,2012-11-24 22:53:00
4:53 PM,48.0,15.1,27,30.14,10.0,SW,8.1,-,N/A,,Clear,230,2012-11-24 23:53:00
5:53 PM,43.0,16.0,34,30.16,10.0,WSW,6.9,-,N/A,,Clear,240,2012-11-25 00:53:00
6:53 PM,43.0,15.1,32,30.17,10.0,WNW,5.8,-,N/A,,Clear,290,2012-11-25 01:53:00
7:53 PM,34.0,16.0,48,30.19,10.0,Calm,Calm,-,N/A,,Clear,0,2012-11-25 02:53:00
8:53 PM,27.0,15.1,61,30.19,10.0,ENE,4.6,-,N/A,,Clear,70,2012-11-25 03:53:00
9:53 PM,28.9,15.1,56,30.15,10.0,NNE,4.6,-,N/A,,Clear,20,2012-11-25 04:53:00
10:53 PM,23.0,15.1,72,30.13,10.0,ENE,5.8,-,N/A,,Clear,70,2012-11-25 05:53:00
11:53 PM,21.0,12.9,71,30.10,10.0,NE,4.6,-,N/A,,Clear,50,2012-11-25 06:53:00